Flag for Mongolia Weather past 2 weeks in Ulaanbaatar, Mongolia

Now
36 °F

Clear.


Feels Like: 33 °F
Forecast: 30 / 68 °F
Wind: 3 mph from Northwest

Location: Ulan-Bator

Current Time: Apr 27, 2015 at 3:22:25 AM

Latest Report: Apr 27, 2015 at 3:00 AM


Visibility: 10 mi

Pressure: 29.89 "Hg

Humidity: 65%

Dew point: 25 °F

Location of UlaanbaatarLocation

Historic Weather in Ulaanbaatar — Graph

°F

Ulaanbaatar temperature yesterday

Maximum temperature yesterday: 72 °F (at 12:30 PM)
Minimum temperature yesterday: 36 °F (at 6:30 AM)
Average temperature yesterday: 53 °F

Past Weeks' High & Low Weather Summary

 TemperatureHumidityPressure
High79 °F (Apr 25, 5:00 PM)93% (Apr 15, 6:30 AM)30.48 "Hg (Apr 15, 6:30 AM)
Low12 °F (Apr 12, 7:00 AM)6% (Apr 25, 5:00 PM)29.27 "Hg (Apr 14, 6:30 PM)
Average42 °F41%29.93 "Hg
* Reported Apr 12 2:00 AM — Apr 27 2:00 AM, Ulaanbaatar, Weather by CustomWeather, © 2015

Note: Actual official high and low records may vary slightly from our data, if they occured in-between our weather recording intervals... More about our weather records

Advertising

Ulaanbaatar weather history for previous 24 hours

 ConditionsComfort  
Time TempWeatherWind HumidityBarometerVisibility
2:00 AM
Mon, Apr 27
37 °FClear.No wind65%29.89 "Hg10 mi
1:30 AM41 °FClear.8 mph57%29.89 "Hg10 mi
1:00 AM39 °FClear.15 mph61%29.89 "Hg10 mi
12:30 AM41 °FClear.17 mph57%29.89 "Hg10 mi
12:00 AM41 °FClear.8 mph57%29.86 "Hg10 mi
11:30 PM
Sun, Apr 26
45 °FClear.6 mph49%29.86 "Hg10 mi
11:00 PM43 °FClear.8 mph53%29.83 "Hg10 mi
10:30 PM45 °FPassing clouds.15 mph53%29.83 "HgN/A
10:00 PM46 °FPassing clouds.13 mph50%29.83 "HgN/A
9:30 PM48 °FPassing clouds.13 mph46%29.80 "HgN/A
9:00 PM50 °FPassing clouds.22 mph43%29.77 "HgN/A
8:30 PM52 °FScattered clouds.24 mph41%29.74 "HgN/A
8:00 PM52 °FScattered clouds.29 mph38%29.74 "HgN/A
7:30 PM52 °FScattered clouds.29 mph41%29.71 "Hg2 mi
7:00 PM55 °FScattered clouds.36 mph33%29.68 "Hg1 mi
6:30 PM61 °FScattered clouds.22 mph31%29.65 "HgN/A
6:00 PM61 °FScattered clouds.17 mph31%29.65 "HgN/A
5:30 PM64 °FPassing clouds.17 mph26%29.65 "HgN/A
5:00 PM64 °FPassing clouds.13 mph28%29.65 "HgN/A
4:30 PM61 °FPassing clouds.8 mph34%29.68 "HgN/A
4:00 PM61 °FScattered clouds.15 mph34%29.68 "HgN/A
3:30 PM64 °FPartly sunny.22 mph32%29.68 "HgN/A
3:00 PM66 °FPartly sunny.20 mph26%29.65 "HgN/A
2:30 PM66 °FPartly sunny.13 mph21%29.65 "HgN/A
2:00 PM68 °FPartly sunny.15 mph20%29.65 "HgN/A
1:30 PM70 °FScattered clouds.13 mph18%29.68 "HgN/A
1:00 PM70 °FScattered clouds.13 mph12%29.65 "HgN/A
12:30 PM72 °FPassing clouds.10 mph10%29.68 "HgN/A
12:00 PM70 °FSunny.13 mph12%29.65 "Hg10 mi
11:30 AM63 °FSunny.3 mph16%29.68 "Hg10 mi
11:00 AM57 °FPassing clouds.8 mph20%29.71 "HgN/A
10:30 AM55 °FSunny.1 mph23%29.71 "Hg10 mi
10:00 AM52 °FSunny.1 mph26%29.71 "Hg10 mi
9:30 AM50 °FSunny.No wind25%29.71 "Hg10 mi
9:00 AM46 °FSunny.3 mph29%29.71 "Hg10 mi
8:30 AM45 °FSunny.1 mph31%29.71 "Hg10 mi
8:00 AM37 °FSunny.1 mph38%29.71 "Hg10 mi
7:30 AM36 °FClear.1 mph41%29.71 "Hg10 mi
6:30 AM36 °FClear.No wind38%29.71 "Hg10 mi
6:00 AM39 °FClear.1 mph36%29.74 "Hg10 mi
5:30 AM41 °FClear.No wind31%29.71 "Hg10 mi
5:00 AM37 °FClear.1 mph33%29.71 "Hg10 mi
4:00 AM41 °FClear.6 mph33%29.71 "Hg10 mi
3:00 AM45 °FClear.1 mph29%29.74 "Hg10 mi
Weather by CustomWeather, © 2015

See weather overviewHow to use our weather pages